Theta_e
347 347 347 347 344 345 348 350 349 350 350 349 349 348 349 348 348 348 347 347 343 340 340 341 342 343 346 343 345 345 345 345 345 345 345 345 344 344 344 344 343 342 342 342 341 341 340 338 337 337 338 338 338 328 331 330 331 333 331 331 334 329
345 346 346 346 345 345 347 347 344 345 346 347 347 347 344 344 348 342 346 341 339 342 337 334 339 343 342 343 343 345 345 345 345 345 344 345 344 344 344 344 344 343 342 342 342 328 328 334 335 336 336 337 328 327 329 331 331 331 332 330 332 332
344 345 345 344 344 345 343 342 340 340 344 346 346 344 340 341 336 337 338 338 337 336 338 340 340 341 340 344 343 345 345 344 345 345 344 344 344 344 344 344 344 343 342 342 332 325 324 323 322 332 331 327 325 328 329 330 330 331 332 330 330 337
343 344 344 343 343 341 342 340 339 339 339 338 338 338 336 335 334 334 335 334 334 338 336 335 343 343 344 338 338 344 345 345 345 344 344 344 344 343 343 344 344 342 336 334 328 326 326 323 323 321 321 324 326 327 328 330 331 331 330 335 331 339
343 343 343 342 343 343 342 338 336 336 336 335 334 334 333 332 333 333 333 334 334 335 333 333 334 335 334 337 336 338 338 336 336 335 343 332 333 336 335 333 332 333 328 327 327 327 326 325 324 322 321 323 325 326 328 330 331 330 331 333 333 340
342 342 342 341 342 343 342 336 335 335 334 334 333 331 331 331 332 332 332 335 336 331 333 332 332 333 334 334 335 334 334 333 333 334 337 333 332 331 331 331 330 332 329 326 325 325 323 325 324 323 322 322 324 325 328 329 330 331 332 332 334 340
340 341 341 342 341 341 339 336 335 334 333 332 331 330 330 330 330 330 331 334 332 331 331 330 331 332 333 332 333 332 333 334 334 332 333 333 331 330 331 331 328 327 325 326 326 325 323 323 321 322 322 323 324 326 327 329 330 331 331 333 335 341
339 340 340 341 340 339 337 336 336 340 333 336 332 329 329 331 332 331 332 332 335 331 332 330 330 330 330 330 331 330 331 332 332 331 332 331 330 329 330 329 328 327 327 327 326 325 323 323 323 322 322 322 323 323 327 329 330 331 331 332 334 340
340 340 339 340 339 338 337 336 337 334 332 339 329 329 329 331 331 334 335 333 335 330 329 330 329 330 328 329 329 329 331 331 330 331 331 329 328 328 329 328 327 327 326 326 325 324 325 325 323 322 321 322 323 323 326 329 330 331 331 331 333 338
340 339 339 339 338 337 336 336 336 334 333 337 328 328 329 329 330 333 335 333 333 331 330 330 329 328 326 328 328 328 332 330 328 328 329 328 328 327 327 328 326 327 328 326 327 325 326 325 325 323 319 321 322 324 326 328 329 331 331 332 333 336
340 342 339 339 337 336 337 335 335 334 336 334 331 332 330 329 329 331 334 332 332 332 329 328 328 328 327 327 326 326 326 329 329 329 327 326 326 327 327 328 327 326 325 325 326 326 326 324 323 322 320 321 320 323 327 328 330 331 332 332 333 333
340 341 339 338 339 336 336 335 335 333 333 334 334 331 330 330 333 330 332 330 330 331 332 329 330 328 325 325 325 325 326 325 326 328 328 328 328 326 327 329 330 328 327 327 327 325 325 324 321 321 320 323 321 321 327 328 328 330 332 332 332 333
340 341 338 337 337 335 334 336 333 333 332 334 332 330 330 331 331 331 329 329 329 331 329 327 328 330 331 326 325 325 326 326 327 328 328 329 330 328 327 325 325 326 325 325 325 325 327 323 321 319 322 326 325 323 327 329 329 328 330 331 331 332
339 338 337 336 335 333 333 332 333 331 334 332 330 329 331 329 332 331 330 328 330 330 328 327 328 327 327 328 326 324 328 330 331 330 327 326 325 326 325 324 326 325 328 324 322 322 322 321 319 320 323 325 325 323 323 328 328 329 329 330 330 331
339 336 337 336 335 332 331 332 331 330 331 329 329 328 327 329 330 330 330 328 329 330 329 328 327 327 326 325 325 325 329 330 330 328 326 325 326 327 326 324 326 326 322 321 322 323 319 317 319 322 322 324 325 326 325 325 327 328 329 328 330 331
336 335 334 334 331 331 331 330 330 333 328 327 327 327 326 329 330 328 328 327 328 330 329 328 327 326 325 325 325 327 330 329 328 327 326 326 324 324 324 325 327 323 320 322 323 322 321 320 323 324 323 324 324 325 324 324 324 326 328 328 329 330
333 333 332 331 330 328 329 329 327 327 326 325 325 325 325 328 330 329 326 326 327 330 328 328 328 327 325 325 325 326 329 328 326 326 327 327 325 324 324 325 322 325 323 321 323 323 321 322 324 324 325 325 325 325 324 324 324 323 327 327 325 327
330 331 331 330 329 328 328 328 325 324 329 324 324 324 326 329 328 326 326 326 326 329 328 326 327 326 325 325 325 325 327 327 324 323 326 329 328 327 324 322 322 324 325 322 321 320 320 322 325 325 323 326 325 325 324 323 323 326 323 323 324 326
327 327 328 328 327 325 324 322 321 322 322 322 324 323 324 325 322 324 325 324 325 325 329 325 325 327 325 325 323 323 323 324 322 322 326 329 328 327 325 321 320 322 325 325 323 321 321 322 324 323 322 323 325 324 325 324 322 322 321 322 324 327
325 326 326 326 324 321 320 321 319 319 320 320 319 322 318 318 318 320 323 324 323 322 325 325 323 323 324 324 322 321 321 323 324 323 326 327 325 325 324 323 322 323 323 326 325 323 324 322 319 319 321 321 322 323 322 322 322 322 322 323 321 322
324 325 326 323 319 319 316 314 314 316 316 315 317 316 316 315 317 318 318 319 321 321 321 323 324 323 322 328 324 323 324 325 326 325 326 326 325 325 325 324 322 323 325 325 324 324 325 321 318 317 317 317 318 320 324 323 322 323 323 323 323 325
324 324 324 322 319 316 314 316 315 315 314 315 316 315 315 314 315 319 317 317 317 315 315 318 323 320 321 321 321 323 325 325 327 327 327 325 322 325 322 321 322 322 325 326 324 326 324 319 314 313 313 313 312 314 321 323 323 324 323 323 324 327
322 322 320 319 316 315 314 316 316 313 315 312 313 315 314 317 318 315 314 315 316 315 315 315 317 322 321 320 320 322 324 325 326 327 325 325 326 325 323 322 321 322 322 324 324 325 320 316 314 316 315 312 309 310 312 315 319 323 325 323 324 326
321 320 318 319 318 315 316 316 316 315 313 313 314 317 313 313 313 314 314 315 316 314 315 315 315 318 318 317 317 318 321 323 324 325 323 322 322 324 323 323 322 322 322 321 322 321 322 319 315 315 312 311 310 308 305 309 313 320 323 324 323 327
320 319 318 321 317 318 318 316 315 315 316 314 313 312 312 312 314 317 315 314 314 315 316 315 315 316 318 315 314 314 314 314 317 318 319 318 318 319 322 322 323 322 321 321 321 324 325 323 321 321 315 313 308 305 306 309 312 316 320 323 324 327
319 319 319 317 317 318 317 314 313 312 310 311 309 309 309 311 310 311 312 312 314 314 315 314 313 313 315 315 313 313 313 314 313 314 315 313 312 313 316 320 319 319 318 318 321 321 322 324 323 321 317 315 312 308 309 313 310 307 315 318 320 325
320 319 319 317 317 318 315 314 313 312 311 311 309 307 307 309 311 310 312 312 311 313 313 312 311 310 311 313 312 312 312 311 312 312 314 312 312 311 313 315 317 317 318 317 317 319 320 320 321 321 321 319 320 317 315 312 309 307 309 314 315 316
321 320 318 317 316 317 315 313 311 311 312 310 309 309 309 310 310 312 311 311 312 311 311 311 311 311 311 312 311 311 311 311 312 312 313 310 310 310 312 312 312 312 314 315 317 318 318 318 314 315 321 318 319 318 317 316 312 310 306 306 311 312
320 318 316 316 316 315 316 313 312 312 311 310 309 311 311 313 311 311 311 309 310 309 309 309 309 310 310 312 313 309 309 309 309 311 313 311 309 309 308 308 308 309 311 311 314 316 315 312 312 315 317 317 317 316 316 317 317 315 308 304 306 307
319 317 317 315 315 314 315 314 312 312 311 310 311 311 310 310 309 309 310 307 307 308 307 307 308 308 308 310 310 310 309 308 308 310 311 307 307 308 308 309 307 307 307 308 307 308 306 305 310 315 318 315 312 310 309 307 310 313 313 308 307 306
317 317 317 315 314 314 313 313 313 312 312 311 310 311 310 308 308 308 309 307 307 307 306 307 308 307 308 310 310 312 310 310 311 314 310 308 308 308 307 307 307 308 308 307 306 306 307 305 307 308 308 309 308 305 305 304 305 306 307 303 302 302
317 317 316 315 313 313 312 311 312 313 313 312 312 312 311 310 309 308 307 307 306 306 306 307 306 306 307 308 310 309 310 308 309 307 308 307 307 308 307 307 307 307 306 305 306 307 305 304 304 304 304 304 304 305 304 304 304 304 305 304 303 301
317 317 318 316 314 313 312 312 313 313 313 313 313 312 311 310 308 308 306 306 305 306 305 306 306 306 306 306 309 307 307 307 307 308 308 308 306 306 308 307 307 306 306 305 304 305 304 302 303 304 303 302 303 304 304 304 304 303 302 302 301 298
318 318 317 316 315 313 313 313 315 315 314 314 313 313 312 312 310 309 308 307 307 307 307 307 306 306 308 307 307 308 308 306 306 307 308 306 306 307 307 308 306 307 306 304 305 305 304 303 303 302 301 303 303 303 303 304 302 303 301 300 299 298
319 319 318 317 316 314 314 315 315 315 315 314 314 313 313 313 312 310 308 307 306 307 307 308 307 308 307 306 307 307 307 307 307 308 308 308 309 307 308 309 308 306 305 304 305 305 303 304 305 302 302 302 304 302 302 303 303 304 303 302 301 299
321 320 318 318 317 316 315 316 315 314 315 315 315 314 314 314 312 311 310 309 307 307 308 308 307 307 307 307 308 307 308 306 306 306 306 307 307 308 306 307 305 304 305 309 306 305 302 303 302 301 301 300 303 301 301 302 304 303 303 303 303 300
319 318 318 319 318 316 315 316 315 315 315 315 314 313 314 314 313 312 311 309 308 308 307 307 309 309 307 307 307 307 306 306 306 307 307 308 308 306 306 307 306 304 304 304 307 304 303 305 301 300 300 300 300 302 301 301 302 303 302 301 302 301
Wind_Speed
6 7 6 4 2 3 5 9 8 9 11 11 10 12 11 11 9 8 8 8 6 4 3 3 5 4 8 4 6 7 8 8 8 8 8 8 7 7 6 5 4 3 1 2 2 4 5 5 5 6 5 6 5 3 3 4 4 4 3 3 3 3
5 6 5 3 1 2 3 6 3 4 5 8 8 8 6 5 6 4 8 5 4 4 5 3 3 5 3 3 4 6 7 8 8 8 7 7 7 6 6 6 5 4 2 1 2 2 2 3 4 6 5 5 2 1 0 4 4 4 3 3 3 4
6 5 5 2 1 1 4 4 3 4 5 7 7 6 4 5 4 4 4 3 4 4 3 4 3 4 2 5 3 6 7 8 7 7 7 6 6 6 5 4 4 2 1 2 2 2 2 2 3 6 4 1 1 0 1 4 4 4 4 3 3 6
7 6 4 3 1 2 3 4 4 4 4 4 5 4 4 4 3 3 4 3 4 3 3 2 5 8 6 3 3 4 7 8 8 7 7 4 5 4 4 4 2 2 3 3 3 3 4 3 3 3 1 0 0 0 2 4 5 5 5 4 4 8
7 6 6 4 4 3 3 4 4 4 4 4 4 3 3 3 3 3 3 4 4 3 3 4 3 3 2 3 3 3 3 3 3 3 5 2 1 1 1 2 3 3 2 2 3 3 3 4 3 2 1 0 1 1 3 4 4 5 5 4 4 8
6 7 6 5 5 5 5 4 5 4 4 3 4 3 2 3 3 3 3 4 4 4 3 3 3 3 2 2 2 3 3 2 3 3 3 3 2 1 2 2 2 2 2 2 2 2 2 2 4 4 1 1 1 1 3 4 4 5 5 4 4 9
7 7 7 6 5 4 4 4 4 4 5 4 3 4 3 2 2 2 2 3 4 3 3 4 4 3 4 4 3 2 4 3 3 2 2 3 2 1 2 2 1 1 1 1 2 2 3 2 2 3 2 0 1 2 3 5 5 4 4 5 5 9
8 7 6 6 5 4 4 4 4 5 4 5 4 4 3 2 2 2 2 1 2 3 4 4 4 4 4 2 2 1 2 2 2 1 1 1 2 1 2 2 1 1 1 1 1 2 2 2 3 2 3 1 2 2 2 4 5 4 4 4 4 7
8 8 6 6 5 4 4 4 3 4 4 5 4 4 4 3 3 2 2 2 2 3 3 3 3 3 2 1 0 1 3 1 0 0 1 1 2 2 1 1 1 1 0 1 1 3 3 3 3 4 3 1 2 2 3 4 4 4 4 4 5 6
8 8 6 6 4 4 4 4 4 4 4 4 4 4 3 3 3 3 3 3 3 3 3 3 3 1 2 2 1 1 2 2 1 2 1 1 0 1 1 0 1 1 0 0 0 1 2 4 4 4 4 0 2 4 3 4 4 5 4 4 4 5
8 7 6 6 5 4 4 4 3 3 3 4 4 4 3 3 3 4 4 3 3 3 2 1 2 1 1 3 1 0 1 2 2 2 2 1 1 0 0 0 0 1 1 0 1 1 1 3 3 4 4 3 2 4 4 3 3 5 5 5 5 4
8 7 6 5 5 4 4 4 4 3 3 3 4 3 4 3 4 4 3 3 3 3 4 2 3 2 2 2 2 1 0 1 1 1 2 2 1 1 0 0 0 1 1 0 1 2 1 2 3 4 3 3 1 2 5 4 3 3 4 4 5 4
6 6 6 6 5 3 3 3 4 3 3 4 3 3 4 3 3 3 2 3 3 3 3 3 3 3 3 2 2 1 1 1 2 2 2 3 3 1 1 0 1 1 2 1 1 3 3 1 1 2 2 3 3 1 3 5 5 3 3 3 3 3
6 6 6 4 4 4 3 3 3 3 3 4 3 3 3 3 3 3 3 3 3 4 3 3 4 3 3 3 2 2 1 2 1 3 3 3 3 1 1 0 1 1 1 1 1 2 1 1 1 2 3 2 3 2 3 5 6 6 4 3 2 1
6 6 5 5 5 4 3 4 4 3 3 3 3 3 4 4 3 4 4 4 3 4 4 3 3 3 2 2 2 1 1 2 1 2 3 3 3 2 1 1 0 0 1 1 2 2 2 2 1 3 2 2 3 3 3 2 4 4 5 4 4 3
7 7 6 6 4 4 4 3 3 4 3 3 4 3 3 4 4 3 2 3 3 3 3 3 3 2 2 1 2 2 2 2 2 2 1 1 2 2 1 2 1 1 1 2 2 2 2 3 2 2 2 2 2 2 3 3 2 2 3 3 4 4
8 8 7 5 4 3 3 3 3 3 3 3 3 3 2 4 4 3 1 2 2 3 3 3 3 3 2 1 1 2 2 1 1 0 1 2 1 1 2 2 1 1 1 2 2 3 2 1 3 2 2 3 3 3 4 4 3 3 3 3 2 2
6 6 7 7 5 5 3 4 4 3 3 4 3 2 2 3 3 4 2 2 2 3 3 3 3 3 3 2 1 2 1 1 1 1 1 1 0 2 2 2 2 1 1 1 2 3 2 1 2 3 2 3 3 4 3 4 3 4 4 2 2 3
7 6 6 6 4 4 4 5 4 3 4 3 3 2 2 3 3 3 4 3 2 2 3 3 2 2 3 2 2 1 2 1 1 1 0 1 0 0 0 1 1 1 2 2 1 2 3 2 3 1 2 2 2 2 2 2 3 4 4 3 2 1
7 7 6 6 6 5 4 5 5 4 4 3 3 3 2 2 3 3 3 2 3 2 3 4 3 2 3 2 2 1 1 0 1 1 1 2 1 2 2 0 1 2 2 2 2 2 2 2 2 2 1 0 0 0 2 1 2 2 1 2 2 1
7 8 8 7 6 6 5 3 2 2 4 1 3 3 3 2 3 3 2 1 1 1 1 1 3 4 4 4 2 1 1 2 2 1 2 3 2 2 0 1 1 1 2 2 1 2 1 1 2 1 2 2 1 1 0 1 1 0 1 2 2 3
7 8 8 9 7 5 3 5 5 4 3 2 3 5 3 2 3 3 3 2 3 2 2 1 1 2 2 3 3 3 2 2 2 2 2 2 2 1 0 1 2 1 1 1 2 2 1 1 1 2 1 1 2 3 1 0 1 1 1 1 1 2
8 8 6 6 7 6 3 4 5 3 5 3 1 1 3 1 1 3 3 3 3 4 4 4 3 3 3 3 3 3 2 2 3 3 2 1 1 1 1 1 2 2 1 1 1 1 1 0 2 2 2 3 1 0 1 1 2 1 0 1 2 3
8 7 7 5 5 4 5 5 5 6 3 3 4 2 3 3 3 4 5 4 4 4 5 5 4 3 3 3 3 2 3 4 4 2 3 3 1 1 1 1 1 1 2 2 1 0 1 1 2 4 1 0 1 1 1 0 1 1 2 1 2 3
8 7 6 6 6 6 8 7 6 5 5 6 5 3 4 4 3 3 4 5 4 4 5 5 4 4 4 4 3 3 3 3 3 2 2 2 2 2 2 2 3 3 3 3 3 1 1 2 2 1 3 2 1 0 2 1 1 1 2 2 1 0
6 6 6 5 7 7 6 7 7 7 6 5 5 4 5 4 3 4 4 1 4 4 5 5 4 4 4 4 4 4 4 4 3 4 4 3 2 2 1 2 2 3 2 1 3 2 1 3 3 4 3 1 1 1 1 1 1 1 2 1 1 3
7 6 5 5 5 7 6 5 5 6 6 6 6 0 1 1 5 3 3 4 3 4 4 7 4 4 4 4 4 4 5 4 4 3 3 4 3 3 2 1 2 3 2 2 3 2 2 1 2 3 3 3 3 2 1 1 1 2 1 0 1 1
6 6 4 5 5 6 8 5 5 5 5 6 5 4 1 1 2 3 5 3 4 4 4 4 5 4 4 4 4 4 4 4 4 3 3 5 3 2 3 3 2 2 3 2 3 4 2 1 2 1 2 3 3 4 3 4 2 1 2 3 0 2
7 6 5 5 6 5 8 7 7 7 4 2 3 5 2 2 3 2 5 3 4 4 4 4 4 5 4 4 4 5 4 4 4 4 3 5 3 3 4 4 3 3 4 3 2 3 4 3 3 3 3 2 3 3 3 2 2 2 2 2 0 0
7 5 5 5 5 5 7 7 7 6 7 4 3 4 4 4 2 2 4 3 3 4 3 3 2 3 4 4 4 4 5 5 4 3 3 4 4 4 4 4 3 3 3 5 3 3 3 2 2 3 2 3 2 1 2 2 2 2 3 2 3 1
5 5 5 5 5 8 6 7 7 7 8 7 5 5 5 3 2 3 4 3 4 2 1 2 1 2 3 3 4 4 4 4 4 3 3 4 4 4 3 4 3 4 5 5 4 4 4 3 4 4 3 3 4 3 2 1 0 1 2 1 3 3
3 5 4 4 4 5 5 4 5 8 8 8 8 6 7 6 4 4 4 4 1 2 1 1 1 2 3 3 4 4 3 4 3 4 4 3 3 4 3 3 4 5 4 3 3 5 4 5 5 5 4 3 4 3 4 4 2 2 4 2 3 2
3 3 4 3 3 3 4 5 6 6 6 7 7 7 6 6 4 5 3 3 3 4 2 2 1 3 2 4 4 5 4 4 3 3 3 3 3 4 4 5 4 4 4 5 4 4 6 4 4 5 5 3 5 5 4 2 3 4 4 4 4 3
4 2 2 3 4 5 6 6 6 6 7 6 6 7 6 7 5 4 4 4 5 5 5 5 4 4 5 4 4 4 4 4 3 3 3 3 4 3 4 5 4 5 4 3 4 5 5 4 5 4 3 6 5 5 5 4 3 4 3 3 4 2
11 10 9 8 7 8 7 6 5 6 7 7 7 7 6 6 6 5 4 4 4 3 5 5 5 4 3 3 4 4 5 5 4 4 4 4 3 3 4 4 4 4 3 3 5 5 5 5 5 5 5 4 5 5 4 4 4 5 3 3 3 1
15 14 13 12 12 11 8 7 6 7 8 8 6 6 5 4 5 4 4 5 5 4 5 4 4 2 3 2 4 4 4 5 4 4 4 5 4 4 4 5 4 4 4 2 6 5 4 5 4 4 4 2 5 4 3 3 4 4 5 3 4 4
5 4 9 11 6 6 7 7 8 8 7 6 7 7 8 8 8 6 5 4 5 5 3 3 4 3 3 2 2 3 3 4 4 4 5 5 5 4 4 4 5 4 4 3 5 4 4 5 3 3 4 4 4 3 3 2 3 4 3 4 4 3
Wind_Direction
132 127 130 137 153 134 146 133 128 127 128 130 133 135 134 133 134 133 127 114 81 76 88 100 107 111 119 91 111 121 136 144 152 153 157 161 159 159 158 147 147 158 175 284 355 25 35 23 26 39 32 56 52 41 113 139 141 140 148 165 164 186
128 132 125 114 137 120 127 124 110 119 121 125 130 123 113 91 97 76 109 92 79 85 83 77 96 116 95 113 121 134 149 155 159 162 166 165 165 165 164 164 161 167 183 270 319 51 37 9 8 42 39 66 62 34 42 151 142 147 157 177 170 210
136 123 115 98 87 144 97 92 93 102 117 126 123 103 85 92 74 89 76 80 79 79 85 97 94 100 117 127 150 156 162 164 165 168 170 171 172 179 177 167 172 156 112 331 7 14 9 348 11 52 38 30 99 226 142 147 146 158 170 181 177 212
151 136 124 126 111 85 97 101 107 103 103 92 88 97 98 101 95 97 97 90 86 81 80 87 137 143 140 168 192 184 174 166 171 172 174 171 181 187 185 175 154 62 30 7 355 351 357 356 354 61 26 345 193 293 142 159 160 166 167 183 190 213
155 148 144 163 162 160 116 116 105 103 94 86 91 95 107 112 113 104 98 91 85 79 69 83 73 89 148 211 188 189 180 162 156 169 160 137 152 198 100 60 43 42 24 11 355 351 0 342 344 24 73 264 237 227 136 159 163 166 173 190 192 210
153 154 163 166 168 171 160 132 115 118 102 95 108 110 108 114 117 113 110 107 93 93 95 105 97 137 182 246 189 171 171 176 174 175 144 154 148 110 76 71 80 62 12 16 352 328 318 322 322 317 108 244 219 246 145 161 166 173 179 183 194 207
159 159 162 168 163 174 154 139 118 125 124 127 120 114 111 106 114 121 123 121 114 112 110 120 131 159 181 211 195 190 188 186 187 176 152 145 140 82 107 106 90 100 65 14 328 319 317 321 299 305 308 193 211 232 161 162 168 179 185 184 196 205
158 157 162 168 171 173 158 141 142 145 120 145 132 125 122 120 122 127 130 133 123 141 148 147 160 171 190 201 197 221 249 191 185 155 102 111 117 108 129 130 112 54 24 358 327 324 328 313 321 313 296 152 192 225 183 174 173 178 187 194 196 202
156 160 163 165 176 169 152 135 142 128 141 151 132 140 139 132 125 130 134 145 145 154 169 157 169 193 160 188 29 5 343 328 111 99 109 82 134 168 197 149 152 140 91 35 12 340 345 341 329 329 306 134 179 199 199 185 178 176 187 197 197 202
161 161 161 163 166 164 161 153 152 140 161 144 142 136 139 143 147 148 165 177 173 169 178 171 179 167 149 104 45 28 19 6 6 31 74 92 70 130 204 189 120 134 124 107 352 294 12 342 336 336 330 341 173 178 201 190 182 179 185 191 204 205
159 161 155 163 164 166 156 161 148 137 148 124 140 140 140 151 159 171 180 168 149 154 137 89 96 107 97 106 105 59 25 31 43 41 58 73 29 129 265 226 133 127 109 123 241 350 28 336 335 338 336 357 196 158 171 225 199 172 180 195 202 207
159 158 158 157 169 159 169 158 142 128 122 125 146 152 151 157 168 182 165 158 147 129 112 98 110 107 102 110 121 95 40 85 103 119 119 123 85 51 73 301 90 116 117 118 345 351 343 301 343 338 338 8 13 166 152 177 220 202 191 191 194 206
152 154 156 161 165 158 141 135 128 135 129 145 161 147 144 160 162 166 146 152 145 114 89 118 115 131 142 137 124 122 144 208 181 140 116 110 110 53 33 10 11 57 86 58 16 2 359 341 2 345 6 26 21 67 162 161 175 184 216 208 200 201
153 147 156 149 139 144 156 130 124 126 140 136 151 143 137 147 151 148 150 154 135 116 118 138 132 134 149 155 164 153 148 236 220 119 116 111 104 120 78 41 353 40 39 64 44 18 38 23 3 30 37 27 45 40 148 168 176 182 178 192 178 189
153 138 148 152 155 161 160 141 134 136 131 141 140 136 139 145 143 158 156 151 132 130 156 144 137 144 154 149 163 169 153 200 170 136 137 152 135 147 145 125 31 42 29 58 75 55 75 90 79 52 22 12 40 22 48 130 164 169 181 174 159 183
143 145 150 157 154 159 157 144 130 144 121 131 129 128 136 138 144 145 144 149 147 146 154 153 145 146 156 147 140 161 175 177 208 138 99 105 119 131 180 127 101 116 83 34 91 58 66 96 82 74 32 33 27 32 67 70 83 177 185 163 180 179
152 152 150 145 139 139 139 140 128 115 133 124 116 122 123 125 141 130 135 176 141 136 125 145 155 158 162 197 158 156 174 221 303 36 90 98 99 150 162 152 117 92 130 134 105 114 64 85 91 60 62 73 32 26 36 28 51 56 128 176 180 168
142 142 146 147 151 153 144 107 99 116 121 108 113 133 136 139 126 125 157 178 147 149 139 156 173 161 144 174 192 181 161 117 87 38 33 39 112 140 132 124 101 56 80 107 118 120 118 99 85 84 46 65 65 45 27 29 23 53 72 79 148 181
132 136 138 135 130 110 97 85 81 88 91 96 97 103 132 108 113 128 157 173 166 164 156 166 167 140 111 126 116 141 173 170 121 90 56 281 86 359 30 68 117 110 56 80 125 148 150 142 93 77 72 25 26 42 18 35 39 51 67 76 46 294
129 137 132 125 123 117 108 114 110 94 79 82 96 111 87 136 139 137 177 173 182 181 177 158 146 120 132 136 153 177 194 75 69 77 206 224 230 248 231 152 98 125 87 67 63 60 46 82 61 63 42 282 86 85 303 311 47 53 39 75 87 76
142 146 147 143 141 145 132 102 70 96 126 123 118 101 89 95 100 100 96 113 142 153 173 147 146 146 159 174 131 133 131 119 113 169 222 241 244 251 31 78 114 90 121 106 31 28 22 108 105 15 359 12 4 332 269 160 264 163 59 354 332 51
144 157 158 152 148 143 150 161 150 170 143 133 120 118 110 97 86 75 75 71 83 75 72 94 114 140 161 137 134 147 155 150 163 207 251 293 288 290 33 90 118 63 19 120 134 207 203 138 38 148 134 321 342 337 341 39 73 295 284 207 348 31
154 151 149 141 136 143 127 131 132 155 145 102 4 45 114 108 91 102 81 80 75 66 71 66 106 157 152 135 148 133 129 130 147 163 175 201 231 235 239 149 158 142 112 38 119 204 200 103 156 140 121 87 332 91 321 5 358 1 303 239 188 166
149 144 138 138 126 111 108 98 88 112 83 107 145 89 66 47 50 59 46 59 71 87 70 68 66 94 103 100 110 117 130 146 151 161 155 150 156 207 194 155 153 156 154 151 135 293 151 120 128 132 107 151 195 132 353 325 20 339 343 217 208 216
150 148 139 127 115 114 104 91 93 78 90 78 54 63 77 40 34 76 69 51 56 82 82 75 68 77 93 102 103 113 110 111 107 109 122 124 159 200 203 194 186 171 188 150 178 143 72 95 92 82 139 112 42 36 215 236 51 339 347 61 355 174
139 131 126 118 125 121 123 127 123 120 112 99 110 110 125 130 89 81 86 60 56 62 86 78 68 73 85 99 98 102 102 98 86 85 101 111 127 94 93 133 187 167 168 235 144 96 130 44 70 65 72 124 162 171 200 220 147 219 317 305 297 3
141 126 111 118 125 120 119 130 136 136 139 143 137 279 333 93 108 78 75 72 65 52 69 92 77 82 87 91 96 90 95 96 94 88 95 100 84 94 102 111 129 119 140 136 110 107 128 96 67 49 62 70 84 85 154 134 209 111 100 282 14 133
123 114 110 124 131 138 138 139 127 126 133 140 147 154 143 93 64 95 77 57 71 54 54 77 97 90 103 109 111 105 102 95 88 80 86 77 90 80 77 45 60 106 116 124 128 135 130 113 146 94 51 59 76 66 65 65 113 154 158 146 292 328
117 113 115 133 140 152 143 150 147 140 128 127 139 127 117 78 85 76 87 54 74 62 58 49 78 107 111 121 117 118 107 95 92 86 84 85 76 76 80 80 62 72 96 73 101 134 136 187 154 148 129 69 65 61 55 68 77 81 117 104 302 33
110 108 125 139 148 154 153 148 144 149 142 141 117 96 97 104 100 101 104 89 84 81 72 67 61 97 109 117 119 111 103 103 105 97 87 99 92 71 65 70 65 76 80 90 59 91 111 127 108 103 112 143 110 19 36 28 25 66 50 74 143 80
88 106 129 152 164 165 166 156 152 152 148 146 143 134 120 112 105 97 120 123 118 109 69 107 82 51 80 104 97 99 107 111 103 92 95 86 87 98 85 83 79 77 70 84 87 89 82 76 105 97 94 124 136 149 161 132 181 34 113 83 54 19
66 124 141 158 172 169 156 154 153 153 152 156 155 155 156 162 173 155 150 152 136 89 78 43 66 96 71 80 95 79 82 86 89 93 86 97 90 91 86 80 64 67 70 72 82 86 85 80 80 85 65 67 91 104 88 116 161 129 104 144 118 105
136 161 153 132 144 158 149 162 162 156 154 159 159 152 160 162 172 159 165 150 143 156 156 128 196 136 156 129 120 114 111 111 97 97 113 98 95 92 87 79 76 68 65 60 59 76 77 68 71 82 83 45 63 54 52 25 100 99 66 91 107 102
137 84 110 143 164 180 180 171 166 156 156 157 162 154 166 170 177 161 169 176 175 172 180 188 195 193 189 157 132 135 126 117 118 117 111 110 104 94 91 90 81 75 72 79 75 73 81 77 67 63 66 70 45 50 36 34 69 77 101 74 52 107
156 173 168 170 176 183 175 167 161 156 156 162 165 163 172 175 167 165 178 184 197 189 187 209 203 211 190 155 145 133 131 127 132 127 120 110 98 84 85 82 80 88 76 74 72 70 55 70 67 64 61 76 77 51 37 25 52 53 68 87 123 152
182 177 165 177 186 175 163 153 155 165 173 168 172 163 162 165 169 165 174 186 195 202 211 206 235 223 205 161 150 146 140 143 140 134 140 138 133 121 115 103 86 83 67 53 84 75 81 82 82 82 86 71 71 51 42 48 55 60 63 87 99 113
172 175 179 182 160 146 144 149 171 172 167 169 171 171 173 179 177 175 173 200 200 208 215 219 222 224 198 196 169 152 157 159 153 145 143 149 146 142 138 126 124 112 106 91 88 96 93 84 91 100 76 71 105 91 45 62 63 52 53 54 64 74